CW5988 Weather Reports


time (UTC)temp
F
wind
direction
speed
knots
gust
knots
rain 1hr
in
rain 24hr
in
rain mn
in
humidity
%
barometer
mb
20260904175919 64 275 5.2 10.4 0.00 0.02 0.00 74 1014.6
20260904175421 63 268 7.0 11.3 0.00 0.02 0.00 75 1014.5
20260904174956 63 252 7.0 12.2 0.00 0.02 0.00 76 1014.6
20260904174417 63 233 7.0 12.2 0.00 0.02 0.00 76 1014.6
20260904173921 63 271 7.0 12.2 0.00 0.02 0.00 77 1014.7
20260904173456 62 261 5.2 12.2 0.00 0.02 0.00 77 1014.7
20260904172920 62 263 5.2 12.2 0.00 0.02 0.00 79 1014.7
20260904172426 62 298 5.2 12.2 0.00 0.02 0.00 80 1014.7
20260904171928 61 289 7.0 12.2 0.00 0.02 0.00 80 1014.7
20260904171434 61 333 7.0 12.2 0.00 0.02 0.00 81 1014.7
20260904170921 61 280 7.0 11.3 0.00 0.02 0.00 81 1014.6
20260904170427 61 273 7.0 11.3 0.00 0.02 0.00 82 1014.6
20260904165931 61 287 6.1 10.4 0.00 0.02 0.00 82 1014.6
20260904165417 61 275 6.1 11.3 0.00 0.02 0.00 82 1014.6
20260904164924 61 295 3.5 9.6 0.00 0.02 0.00 83 1014.7
20260904164426 60 295 4.3 10.4 0.00 0.02 0.00 83 1014.6
20260904163931 60 264 6.1 13.0 0.00 0.02 0.00 83 1014.5
20260904163436 60 271 8.7 13.0 0.00 0.02 0.00 81 1014.4
20260904162920 61 305 6.1 12.2 0.00 0.02 0.00 81 1014.4
20260904162425 61 306 6.1 12.2 0.00 0.02 0.00 81 1014.3
20260904161930 61 265 6.1 11.3 0.00 0.02 0.00 80 1014.2
20260904161432 61 296 5.2 10.4 0.00 0.02 0.00 80 1014.2
20260904160916 61 273 6.1 10.4 0.00 0.02 0.00 80 1014.1
20260904160438 61 287 5.2 9.6 0.00 0.02 0.00 80 1014.2
20260904155920 61 318 5.2 9.6 0.00 0.02 0.00 80 1014.2
20260904155420 61 284 4.3 10.4 0.00 0.02 0.00 80 1014.1
20260904154923 61 294 7.0 10.4 0.00 0.02 0.00 80 1014.1
20260904154425 61 289 7.0 10.4 0.00 0.02 0.00 80 1014.1
20260904153925 61 296 4.3 8.7 0.00 0.02 0.00 81 1014.0
20260904153423 61 350 3.5 8.7 0.00 0.02 0.00 81 1014.0
20260904152955 61 306 6.1 8.7 0.00 0.02 0.00 82 1013.9
20260904152418 60 263 4.3 7.8 0.00 0.02 0.00 83 1014.0
20260904151923 60 304 4.3 7.8 0.00 0.02 0.00 83 1013.9
20260904151446 60 285 3.5 7.8 0.00 0.02 0.00 83 1013.9
20260904150928 60 226 4.3 7.8 0.00 0.02 0.00 83 1014.0
20260904150429 60 282 3.5 7.8 0.00 0.02 0.00 83 1013.8
20260904145934 59 289 5.2 7.8 0.00 0.02 0.00 83 1013.8
20260904145417 59 275 3.5 7.8 0.00 0.02 0.00 84 1013.7
20260904144922 59 277 4.3 7.8 0.00 0.02 0.00 84 1013.6
20260904144426 59 280 5.2 7.8 0.00 0.02 0.00 84 1013.5
20260904143931 59 235 3.5 7.8 0.00 0.02 0.00 84 1013.5
20260904143417 59 228 4.3 7.8 0.00 0.02 0.00 84 1013.4
20260904142923 59 282 3.5 7.0 0.00 0.02 0.00 84 1013.3
20260904142443 58 237 3.5 6.1 0.00 0.02 0.00 84 1013.2
20260904141926 58 261 4.3 6.1 0.00 0.02 0.00 84 1013.2
20260904141431 58 226 3.5 7.0 0.00 0.02 0.00 84 1013.1
20260904140936 58 207 4.3 7.0 0.00 0.02 0.00 84 1013.1
20260904140441 58 313 3.5 6.1 0.00 0.02 0.00 84 1013.0
20260904135924 58 258 3.5 6.1 0.00 0.02 0.00 84 1013.0
20260904135426 58 240 4.3 6.1 0.00 0.02 0.00 84 1012.9
20260904134929 58 273 3.5 5.2 0.00 0.02 0.00 84 1012.9
20260904134435 58 280 3.5 5.2 0.00 0.02 0.00 84 1012.9
20260904133951 58 261 1.7 5.2 0.00 0.02 0.00 84 1012.9
20260904133417 58 286 3.5 6.1 0.00 0.02 0.00 85 1012.9
20260904132921 58 275 3.5 6.1 0.00 0.02 0.00 85 1012.9
20260904132427 59 271 3.5 7.8 0.00 0.02 0.00 85 1012.7
20260904131929 59 247 4.3 7.8 0.00 0.02 0.00 85 1012.7
20260904131437 59 276 5.2 7.8 0.00 0.02 0.00 85 1012.8
20260904130954 59 290 5.2 7.8 0.00 0.02 0.00 85 1012.7
20260904130421 59 285 4.3 7.8 0.00 0.02 0.00 85 1012.7
20260904125946 59 284 5.2 7.8 0.00 0.02 0.00 85 1012.7
20260904125431 59 256 2.6 9.6 0.00 0.02 0.00 85 1012.7
20260904124932 59 298 5.2 9.6 0.00 0.02 0.00 84 1012.7
20260904124420 59 284 5.2 7.8 0.00 0.02 0.00 84 1012.7
20260904123927 59 263 4.3 6.1 0.00 0.02 0.00 84 1012.6
20260904123435 59 271 3.5 7.0 0.00 0.02 0.00 84 1012.7
20260904122924 59 244 3.5 7.0 0.00 0.02 0.00 84 1012.7
20260904122430 59 268 4.3 7.8 0.00 0.02 0.00 84 1012.7
20260904121939 59 273 4.3 7.8 0.00 0.02 0.00 84 1012.7
20260904121426 59 268 3.5 7.8 0.00 0.02 0.00 85 1012.7
20260904120929 59 215 3.5 7.8 0.00 0.02 0.00 85 1012.7
20260904120436 59 270 5.2 7.0 0.00 0.02 0.00 85 1012.7
20260904115940 59 275 3.5 7.0 0.00 0.02 0.00 85 1012.7
20260904115425 59 252 4.3 7.8 0.00 0.02 0.00 85 1012.6
20260904114931 59 282 6.1 7.8 0.00 0.02 0.00 85 1012.6
20260904114417 59 268 4.3 6.1 0.00 0.02 0.00 85 1012.6
20260904113925 59 273 4.3 5.2 0.00 0.02 0.00 85 1012.6
20260904113456 59 261 4.3 6.1 0.00 0.02 0.00 86 1012.6
20260904112921 59 270 4.3 6.1 0.00 0.02 0.00 86 1012.7
20260904112430 59 273 4.3 7.0 0.00 0.02 0.00 86 1012.7
20260904111936 59 258 5.2 7.8 0.00 0.02 0.00 86 1012.6
20260904111422 59 284 4.3 7.8 0.00 0.02 0.00 86 1012.7
20260904110949 59 280 5.2 8.7 0.00 0.02 0.00 86 1012.7
20260904110430 59 295 5.2 7.8 0.00 0.02 0.00 86 1012.7
20260904105917 59 282 4.3 7.8 0.00 0.02 0.00 87 1012.6
20260904105425 59 289 4.3 7.8 0.00 0.02 0.00 87 1012.6
20260904104933 59 268 3.5 7.0 0.00 0.02 0.00 87 1012.6
20260904104447 59 254 2.6 7.0 0.00 0.02 0.00 87 1012.6
20260904103934 59 222 2.6 7.0 0.00 0.02 0.00 87 1012.5
20260904103442 59 273 3.5 7.0 0.00 0.02 0.00 87 1012.5
20260904102952 59 230 4.3 7.0 0.00 0.02 0.00 87 1012.5
20260904102445 59 282 4.3 8.7 0.00 0.02 0.00 87 1012.6
20260904101930 59 256 4.3 8.7 0.00 0.02 0.00 87 1012.5
20260904101417 60 263 4.3 8.7 0.00 0.02 0.00 87 1012.5
20260904100924 60 275 3.5 8.7 0.00 0.02 0.00 87 1012.5
20260904100430 60 275 6.1 8.7 0.00 0.02 0.00 87 1012.5
20260904095935 60 285 4.3 8.7 0.00 0.02 0.00 87 1012.5
20260904095423 60 282 4.3 8.7 0.00 0.02 0.00 86 1012.4
20260904094945 60 270 4.3 8.7 0.00 0.02 0.00 86 1012.4
20260904094430 60 292 3.5 9.6 0.00 0.02 0.00 86 1012.4
20260904093938 60 277 2.6 6.1 0.00 0.02 0.00 86 1012.4
20260904093423 60 244 1.7 4.3 0.00 0.02 0.00 86 1012.3
20260904092927 60 285 0.9 4.3 0.00 0.02 0.00 86 1012.4
20260904092433 60 330 1.7 6.1 0.00 0.02 0.00 86 1012.4
20260904091936 61 280 3.5 6.1 0.00 0.02 0.00 86 1012.5
20260904091423 61 337 3.5 7.0 0.00 0.02 0.00 86 1012.4
20260904090930 61 330 4.3 7.0 0.00 0.02 0.00 86 1012.3
20260904090437 61 349 2.6 6.1 0.00 0.02 0.00 86 1012.3
20260904085920 61 251 3.5 11.3 0.00 0.02 0.00 86 1012.3
20260904085449 61 295 6.1 11.3 0.00 0.02 0.00 86 1012.3
20260904084934 61 268 4.3 13.9 0.00 0.02 0.00 86 1012.3
20260904084419 61 296 6.1 13.9 0.00 0.02 0.00 86 1012.3
20260904083956 61 254 6.1 13.0 0.00 0.02 0.00 86 1012.2
20260904083441 61 239 6.1 11.3 0.00 0.02 0.00 86 1012.3
20260904082927 61 268 6.1 11.3 0.00 0.02 0.00 86 1012.2
20260904082432 61 282 5.2 10.4 0.00 0.02 0.00 86 1012.1
20260904081918 61 275 4.3 13.0 0.00 0.02 0.00 86 1012.1
20260904081422 61 290 7.8 15.6 0.00 0.02 0.00 86 1012.0
20260904080924 61 265 7.8 15.6 0.00 0.02 0.00 86 1012.1
20260904080428 61 237 6.1 13.0 0.00 0.02 0.00 86 1012.1
20260904075916 61 313 7.8 13.9 0.00 0.02 0.00 86 1012.1
20260904075425 61 264 8.7 13.9 0.00 0.02 0.00 86 1012.0
20260904074931 61 292 7.8 13.9 0.00 0.02 0.00 86 1012.0
20260904074437 61 273 7.8 13.9 0.00 0.02 0.00 86 1011.9
20260904073923 61 256 7.8 13.9 0.00 0.02 0.00 86 1012.1
20260904073426 61 285 7.8 13.0 0.00 0.02 0.00 85 1011.9
20260904072930 61 285 9.6 14.8 0.00 0.02 0.00 86 1011.9
20260904072439 61 287 9.6 14.8 0.00 0.02 0.00 86 1011.9
20260904071922 61 230 7.8 13.9 0.00 0.02 0.00 86 1012.0
20260904071430 61 277 7.8 13.0 0.00 0.02 0.00 86 1012.0
20260904070938 61 292 7.8 13.0 0.00 0.02 0.00 86 1012.0
20260904070442 61 295 7.0 11.3 0.00 0.02 0.00 86 1011.9
20260904065921 62 259 6.1 13.9 0.00 0.02 0.02 86 1012.0
20260904065457 62 277 7.8 13.9 0.00 0.02 0.02 85 1011.9
20260904064922 62 275 7.8 14.8 0.00 0.02 0.02 85 1012.0
20260904064427 62 259 7.8 14.8 0.00 0.02 0.02 85 1012.0
20260904063935 62 249 7.8 13.0 0.00 0.02 0.02 85 1011.8
20260904063422 62 302 7.8 13.9 0.00 0.02 0.02 85 1011.8
20260904062944 62 275 8.7 13.0 0.00 0.02 0.02 85 1011.9
20260904062431 62 249 7.0 11.3 0.00 0.02 0.02 85 1011.8
20260904061917 62 276 7.0 11.3 0.00 0.02 0.02 86 1011.8
20260904061423 62 296 6.1 9.6 0.00 0.02 0.02 86 1011.8
20260904060931 62 278 6.1 8.7 0.00 0.02 0.02 87 1011.8
20260904060435 62 261 4.3 7.0 0.00 0.02 0.02 87 1011.8
20260904055937 62 276 4.3 7.8 0.00 0.02 0.02 87 1011.9
20260904055450 61 256 4.3 7.0 0.00 0.02 0.02 87 1011.9
20260904054917 61 237 4.3 7.0 0.00 0.02 0.02 87 1012.0
20260904054425 61 280 3.5 11.3 0.00 0.02 0.02 87 1012.1
20260904053933 61 256 4.3 11.3 0.01 0.02 0.02 87 1012.2
20260904053419 61 278 7.0 11.3 0.01 0.02 0.02 87 1012.3
20260904052927 61 261 7.0 11.3 0.01 0.02 0.02 87 1012.4
20260904052436 61 257 6.1 12.2 0.01 0.02 0.02 87 1012.4
20260904051922 61 237 6.1 11.3 0.01 0.02 0.02 87 1012.5
20260904051421 61 252 6.1 11.3 0.01 0.02 0.02 88 1012.5
20260904050928 61 263 6.1 10.4 0.01 0.02 0.02 88 1012.5
20260904050434 61 275 5.2 10.4 0.01 0.02 0.02 88 1012.5
20260904045920 61 285 7.0 10.4 0.01 0.02 0.02 88 1012.5
20260904045432 61 311 7.0 11.3 0.01 0.02 0.02 88 1012.5
20260904044936 61 282 4.3 11.3 0.01 0.02 0.02 88 1012.6
20260904044440 61 276 5.2 11.3 0.01 0.02 0.02 88 1012.6
20260904043923 61 268 4.3 11.3 0.00 0.01 0.01 88 1012.6
20260904043429 62 316 6.1 9.6 0.00 0.01 0.01 88 1012.6
20260904042916 62 280 7.0 9.6 0.00 0.01 0.01 88 1012.6
20260904042424 62 268 4.3 10.4 0.00 0.01 0.01 88 1012.5
20260904041931 62 326 5.2 10.4 0.00 0.01 0.01 88 1012.5
20260904041434 62 282 4.3 8.7 0.00 0.01 0.01 88 1012.4
20260904040921 62 282 5.2 7.0 0.00 0.01 0.01 88 1012.3
20260904040426 62 278 2.6 4.3 0.01 0.01 0.01 88 1012.3
20260904035928 62 215 1.7 3.5 0.01 0.01 0.01 88 1012.2
20260904035434 62 268 0.9 1.7 0.01 0.01 0.01 88 1012.2
20260904034921 62 222 0.0 2.6 0.01 0.01 0.01 88 1012.2
20260904034429 62 215 0.9 2.6 0.01 0.01 0.01 88 1012.2
20260904033935 62 285 1.7 3.5 0.01 0.01 0.01 88 1012.0
20260904033421 62 261 2.6 4.3 0.01 0.01 0.01 87 1012.0
20260904032923 62 275 1.7 6.1 0.01 0.01 0.01 87 1012.0
20260904032425 62 290 3.5 6.1 0.01 0.01 0.01 87 1012.0
20260904031931 62 271 3.5 6.1 0.01 0.01 0.01 87 1011.9
20260904031418 62 212 2.6 6.1 0.01 0.01 0.01 87 1011.9
20260904030928 62 252 2.6 6.1 0.01 0.01 0.01 87 1011.9
20260904030435 62 290 1.7 6.1 0.00 0.00 0.00 87 1011.8
20260904025921 62 283 2.6 8.7 0.00 0.00 0.00 87 1011.8
20260904025424 62 289 3.5 10.4 0.00 0.00 0.00 87 1011.9
20260904024933 62 273 6.1 11.3 0.00 0.00 0.00 87 1011.9
20260904024435 62 329 6.1 11.3 0.00 0.00 0.00 87 1012.0
20260904023950 62 301 6.1 12.2 0.00 0.00 0.00 87 1012.0
20260904023436 62 268 6.1 12.2 0.00 0.00 0.00 87 1012.0
20260904022923 62 283 7.0 9.6 0.00 0.00 0.00 87 1012.1
20260904022431 62 310 5.2 12.2 0.00 0.00 0.00 86 1012.1
20260904021918 62 270 7.8 13.0 0.00 0.00 0.00 86 1012.1
20260904021423 62 284 7.0 13.0 0.00 0.00 0.00 86 1012.1
20260904020929 63 305 7.0 13.0 0.00 0.00 0.00 86 1012.2
20260904020436 63 242 6.1 11.3 0.00 0.00 0.00 86 1012.1
20260904015917 63 274 7.0 10.4 0.00 0.00 0.00 86 1012.0
20260904015425 64 256 7.0 10.4 0.00 0.00 0.00 86 1012.0
20260904014931 64 280 5.2 11.3 0.00 0.00 0.00 85 1012.1
20260904014436 64 273 2.6 13.9 0.00 0.00 0.00 85 1012.0
20260904013953 64 219 6.1 13.9 0.00 0.00 0.00 85 1012.0
20260904013420 64 221 4.3 13.0 0.00 0.00 0.00 85 1012.1
20260904012922 64 238 7.0 14.8 0.00 0.00 0.00 84 1012.1
20260904012430 65 219 7.8 14.8 0.00 0.00 0.00 84 1012.1
20260904011936 66 242 3.5 15.6 0.00 0.00 0.00 84 1012.0
20260904011422 66 276 5.2 14.8 0.00 0.00 0.00 84 1012.1
20260904010929 66 263 7.0 14.8 0.00 0.00 0.00 83 1012.0
20260904010436 66 206 6.1 11.3 0.00 0.00 0.00 83 1012.1
20260904005952 66 277 5.2 14.8 0.00 0.00 0.00 83 1012.2
20260904005436 66 305 8.7 14.8 0.00 0.00 0.00 82 1012.3
20260904004921 66 299 5.2 14.8 0.00 0.00 0.00 82 1012.3
20260904004444 67 230 6.1 17.4 0.00 0.00 0.00 82 1012.2
20260904003931 67 227 6.1 16.5 0.00 0.00 0.00 82 1012.2
20260904003418 67 195 7.0 18.2 0.00 0.00 0.00 82 1012.2
20260904002924 67 210 11.3 18.2 0.00 0.00 0.00 81 1012.3
20260904002428 67 207 7.0 16.5 0.00 0.00 0.00 81 1012.2
20260904001932 67 183 7.8 16.5 0.00 0.00 0.00 81 1012.3
20260904001418 67 194 7.8 14.8 0.00 0.00 0.00 81 1012.2
20260904000944 67 229 5.2 16.5 0.00 0.00 0.00 81 1012.5
20260904000432 67 245 7.0 17.4 0.00 0.00 0.00 80 1012.4
20260903235936 68 219 7.8 17.4 0.00 0.00 0.00 78 1012.4
20260903235424 68 203 3.5 13.9 0.00 0.00 0.00 77 1012.6
20260903234930 69 249 6.1 13.9 0.00 0.00 0.00 76 1012.5
20260903234432 69 214 4.3 11.3 0.00 0.00 0.00 75 1012.5
20260903233916 69 230 7.0 16.5 0.00 0.00 0.00 75 1012.5
20260903233421 69 259 7.8 17.4 0.00 0.00 0.00 75 1012.5
20260903232929 69 242 5.2 15.6 0.00 0.00 0.00 75 1012.6
20260903232435 69 220 7.8 15.6 0.00 0.00 0.00 75 1012.7
20260903231941 69 257 7.0 14.8 0.00 0.00 0.00 74 1012.6
20260903231442 69 249 7.8 16.5 0.00 0.00 0.00 74 1012.7
20260903230926 69 201 8.7 16.5 0.00 0.00 0.00 74 1012.9
20260903230434 70 242 7.0 15.6 0.00 0.00 0.00 74 1013.0
20260903225918 70 230 4.3 15.6 0.00 0.00 0.00 75 1013.1
20260903225426 70 226 7.0 14.8 0.00 0.00 0.00 74 1013.1
20260903224933 70 261 6.1 11.3 0.00 0.00 0.00 75 1013.1
20260903224422 69 268 5.2 17.4 0.00 0.00 0.00 75 1013.2
20260903223929 69 219 10.4 17.4 0.00 0.00 0.00 75 1013.2
20260903223459 69 217 7.0 16.5 0.00 0.00 0.00 75 1013.4
20260903222952 69 212 8.7 19.1 0.00 0.00 0.00 75 1013.3
20260903222436 69 242 7.8 19.1 0.00 0.00 0.00 74 1013.3
20260903221952 70 228 7.8 16.5 0.00 0.00 0.00 74 1013.4
20260903221418 70 218 6.1 13.0 0.00 0.00 0.00 74 1013.5
20260903220927 70 226 5.2 13.0 0.00 0.00 0.00 74 1013.5
20260903220429 70 206 7.0 13.9 0.00 0.00 0.00 74 1013.6
20260903215935 70 306 7.0 13.9 0.00 0.00 0.00 73 1013.5
20260903215451 71 242 7.0 13.0 0.00 0.00 0.00 74 1013.6
20260903214918 70 251 6.1 13.9 0.00 0.00 0.00 75 1013.7
20260903214447 70 242 7.8 13.9 0.00 0.00 0.00 75 1013.7
20260903213937 69 239 4.3 14.8 0.00 0.00 0.00 76 1013.7
20260903213423 69 282 7.0 14.8 0.00 0.00 0.00 75 1013.7
20260903212927 69 213 3.5 14.8 0.00 0.00 0.00 75 1013.8
20260903212434 69 282 7.0 14.8 0.00 0.00 0.00 75 1013.8
20260903211920 69 221 5.2 13.0 0.00 0.00 0.00 74 1013.9
20260903211426 69 256 5.2 13.0 0.00 0.00 0.00 74 1013.9
20260903210932 69 192 6.1 14.8 0.00 0.00 0.00 73 1014.0
20260903210420 70 249 6.1 14.8 0.00 0.00 0.00 73 1014.0
20260903205923 70 194 5.2 11.3 0.00 0.00 0.00 73 1014.0
20260903205425 70 234 6.1 11.3 0.00 0.00 0.00 73 1014.1
20260903204931 70 261 6.1 11.3 0.00 0.00 0.00 72 1014.0
20260903204417 70 227 4.3 10.4 0.00 0.00 0.00 73 1014.1
20260903203944 70 217 4.3 15.6 0.00 0.00 0.00 73 1014.0
20260903203432 69 249 4.3 13.9 0.00 0.00 0.00 74 1014.1
20260903202917 69 235 5.2 13.9 0.00 0.00 0.00 74 1014.1
20260903202426 69 250 6.1 13.0 0.00 0.00 0.00 75 1014.1
20260903201931 69 259 6.1 13.9 0.00 0.00 0.00 74 1014.0
20260903201445 69 278 7.0 13.0 0.00 0.00 0.00 74 1014.1
20260903200932 69 233 6.1 15.6 0.00 0.00 0.00 74 1014.1
20260903200417 69 211 7.0 11.3 0.00 0.00 0.00 74 1014.1
20260903195919 69 251 3.5 14.8 0.00 0.00 0.00 75 1014.2
20260903195424 69 242 8.7 14.8 0.00 0.00 0.00 74 1014.2
20260903194930 69 221 2.6 12.2 0.00 0.00 0.00 75 1014.2
20260903194417 68 240 4.3 13.9 0.00 0.00 0.00 76 1014.2
20260903193923 68 282 6.1 13.0 0.00 0.00 0.00 75 1014.5
20260903193431 68 226 7.8 13.0 0.00 0.00 0.00 75 1014.4
20260903192916 68 94 6.1 12.2 0.00 0.00 0.00 75 1014.6
20260903192425 68 242 7.0 11.3 0.00 0.00 0.00 74 1014.6
20260903191934 69 216 5.2 11.3 0.00 0.00 0.00 73 1014.7
20260903191421 69 242 5.2 10.4 0.00 0.00 0.00 73 1014.7
20260903190927 69 261 7.0 13.9 0.00 0.00 0.00 73 1014.7
20260903190457 69 203 4.3 13.9 0.00 0.00 0.00 73 1014.7
20260903185934 69 230 4.3 10.4 0.00 0.00 0.00 73 1014.7
20260903185420 68 270 4.3 11.3 0.00 0.00 0.00 73 1014.8
20260903184927 68 235 3.5 14.8 0.00 0.00 0.00 74 1014.9
20260903184431 68 203 5.2 10.4 0.00 0.00 0.00 74 1014.9
20260903183936 68 219 4.3 10.4 0.00 0.00 0.00 74 1014.9
20260903183446 68 194 5.2 9.6 0.00 0.00 0.00 74 1014.8
20260903182932 68 215 3.5 8.7 0.00 0.00 0.00 74 1014.9
20260903182439 68 246 5.2 11.3 0.00 0.00 0.00 74 1014.9
20260903181947 67 186 6.1 13.0 0.00 0.00 0.00 74 1014.9
20260903181434 67 177 7.0 13.9 0.00 0.00 0.00 73 1014.9
20260903180919 67 236 7.8 13.9 0.00 0.00 0.00 73 1014.8
20260903180424 67 239 6.1 13.9 0.00 0.00 0.00 73 1014.7